Temp
7 7 7 6 6 6 6 6 5 5 5 5 5 5 6 6 6 6 6 6 5 5 6 5 4 4 4 3 4 3 3 4 4 4 3 3 3 2
7 7 6 5 5 5 4 5 5 4 4 4 4 4 4 4 4 5 6 5 5 4 5 4 4 3 4 3 3 3 3 3 3 3 3 2 2 2
6 6 6 5 4 4 4 4 4 4 4 4 4 3 3 3 3 3 4 4 4 3 4 4 4 3 3 2 2 2 2 2 2 3 2 2 1 1
5 5 5 5 4 4 4 4 3 3 3 2 2 2 2 2 2 2 3 3 3 3 3 3 2 2 1 1 1 1 1 1 2 2 2 2 1 1
5 5 4 4 4 4 3 3 3 2 2 2 1 1 1 1 1 1 2 1 2 3 2 0 0 0 0 0 -0 0 1 1 1 2 1 1 1 1
4 4 3 3 3 2 3 3 2 2 2 1 1 1 -0 -0 -0 -0 1 1 2 2 1 0 -0 -0 -0 -0 -0 -0 1 1 1 1 1 0 -0 -1
3 2 2 2 2 2 2 1 2 2 1 1 0 -1 -1 -1 -1 -0 0 0 1 0 -0 -1 -1 -1 -0 -0 -0 -0 1 0 -0 0 -0 -1 -1 -1
2 2 2 1 2 2 1 1 2 1 1 0 -1 -1 -1 -1 -1 -1 -1 -1 -1 -1 -1 -1 -1 -1 -1 -1 -1 -1 -1 -0 -1 -1 -1 -2 -2 -2
2 2 2 2 2 2 1 2 2 2 0 -1 -1 -1 -1 -2 -2 -1 -1 -0 -1 -2 -1 -2 -1 -2 -2 -2 -1 -2 -2 -2 -2 -2 -2 -2 -3 -3
1 2 2 1 1 1 2 1 1 1 0 -1 -1 -1 -2 -2 -2 -2 -2 -2 -2 -2 -2 -2 -3 -2 -2 -2 -2 -3 -3 -3 -3 -3 -3 -3 -4 -4
2 2 1 1 1 1 1 1 -0 0 -1 -1 -1 -2 -2 -3 -3 -3 -3 -3 -3 -3 -2 -2 -4 -3 -4 -4 -4 -3 -3 -3 -4 -4 -4 -4 -4 -3
0 1 1 0 0 1 0 -0 -0 -1 -2 -1 -2 -2 -3 -4 -4 -3 -3 -3 -3 -4 -3 -3 -4 -4 -5 -5 -4 -4 -4 -4 -4 -4 -4 -4 -3 -2
1 1 0 0 1 0 0 -0 -1 -1 -1 -1 -2 -3 -4 -4 -4 -4 -3 -2 -3 -4 -4 -3 -4 -4 -4 -6 -6 -5 -5 -5 -5 -5 -5 -4 -3 -2
0 1 -0 0 0 0 -0 -1 -1 -1 -1 -2 -3 -4 -4 -4 -4 -4 -3 -3 -3 -2 -3 -3 -3 -4 -4 -5 -5 -6 -6 -6 -5 -5 -4 -3 -3 -3
-0 -0 -0 -0 0 0 -1 -1 -2 -2 -1 -2 -3 -4 -4 -4 -4 -4 -4 -4 -3 -3 -3 -4 -4 -5 -5 -2 -3 -5 -5 -6 -5 -3 -3 -3 -3 -3
-1 -2 -1 -1 0 -0 -1 -2 -2 -2 -2 -2 -3 -4 -4 -4 -4 -4 -4 -4 -4 -4 -5 -5 -5 -5 -4 -4 -4 -4 -4 -3 -3 -3 -3 -3 -4 -3
-2 -2 -2 -2 -1 -1 -2 -2 -2 -2 -2 -2 -3 -4 -5 -5 -4 -4 -4 -4 -4 -4 -5 -6 -6 -6 -5 -3 -4 -4 -3 -4 -3 -3 -3 -3 -4 -3
-2 -2 -2 -2 -2 -2 -2 -2 -2 -3 -3 -3 -3 -3 -4 -4 -4 -4 -4 -4 -4 -4 -4 -5 -6 -6 -6 -6 -5 -4 -4 -4 -4 -4 -4 -4 -4 -3
-3 -3 -3 -3 -3 -3 -3 -3 -2 -3 -2 -3 -3 -3 -4 -4 -4 -4 -4 -4 -5 -4 -4 -5 -5 -6 -6 -5 -6 -6 -4 -5 -5 -5 -4 -3 -3 -3
-3 -3 -4 -4 -4 -3 -3 -3 -3 -3 -3 -3 -3 -3 -4 -4 -4 -4 -4 -4 -4 -4 -4 -5 -5 -4 -5 -5 -5 -5 -5 -4 -4 -4 -4 -5 -5 -5
-4 -5 -4 -4 -4 -4 -4 -4 -3 -3 -3 -3 -3 -3 -3 -4 -4 -4 -4 -4 -4 -4 -4 -4 -3 -4 -5 -5 -5 -5 -5 -5 -4 -3 -4 -5 -7 -7
-5 -4 -4 -4 -4 -4 -4 -4 -4 -4 -3 -3 -3 -3 -3 -4 -4 -4 -4 -5 -5 -4 -4 -4 -5 -5 -5 -5 -5 -4 -5 -5 -6 -6 -6 -5 -5 -6
-4 -5 -4 -4 -4 -4 -4 -4 -4 -4 -4 -3 -3 -4 -4 -4 -4 -4 -4 -5 -5 -5 -4 -4 -5 -5 -5 -5 -5 -5 -5 -6 -6 -6 -7 -6 -6 -5
Height
1485 1483 1482 1481 1481 1480 1479 1481 1476 1471 1468 1469 1470 1470 1470 1470 1471 1471 1471 1472 1475 1477 1479 1483 1488 1494 1502 1509 1516 1521 1524 1529 1533 1537 1541 1545 1547 1548
1478 1475 1473 1473 1473 1472 1472 1471 1470 1468 1465 1465 1465 1463 1463 1464 1466 1466 1466 1468 1470 1471 1469 1474 1482 1487 1494 1503 1511 1518 1524 1528 1531 1535 1540 1544 1546 1548
1468 1469 1465 1465 1464 1466 1465 1463 1461 1461 1460 1459 1459 1459 1458 1458 1459 1460 1460 1461 1463 1468 1472 1470 1476 1484 1489 1497 1506 1514 1521 1525 1530 1535 1537 1543 1548 1550
1463 1461 1458 1456 1454 1455 1454 1455 1455 1454 1453 1453 1453 1454 1453 1453 1453 1453 1454 1455 1458 1461 1466 1473 1476 1483 1488 1494 1503 1510 1518 1524 1528 1533 1537 1543 1546 1549
1454 1452 1450 1452 1452 1450 1449 1447 1447 1446 1448 1447 1447 1446 1445 1445 1446 1447 1449 1451 1455 1458 1463 1468 1476 1481 1487 1493 1501 1507 1514 1522 1527 1531 1536 1541 1545 1548
1449 1447 1445 1444 1443 1443 1442 1442 1441 1442 1443 1442 1441 1439 1438 1438 1440 1442 1445 1447 1452 1455 1460 1468 1475 1480 1487 1493 1500 1504 1511 1520 1525 1529 1535 1540 1545 1549
1439 1439 1438 1437 1435 1437 1436 1435 1437 1437 1437 1436 1434 1433 1432 1432 1434 1437 1441 1443 1448 1451 1458 1466 1474 1480 1489 1493 1501 1503 1509 1517 1523 1528 1533 1539 1544 1548
1430 1430 1430 1431 1431 1432 1431 1432 1432 1432 1430 1429 1427 1427 1427 1427 1429 1432 1435 1439 1446 1452 1456 1464 1472 1480 1486 1492 1498 1504 1509 1516 1523 1527 1532 1537 1543 1546
1427 1424 1423 1424 1425 1426 1427 1426 1427 1426 1424 1423 1422 1422 1423 1423 1426 1428 1432 1436 1438 1447 1456 1463 1472 1480 1486 1491 1496 1504 1510 1516 1523 1526 1531 1535 1541 1545
1424 1421 1418 1420 1418 1420 1421 1421 1422 1420 1419 1418 1417 1418 1419 1420 1423 1427 1430 1434 1440 1448 1456 1464 1473 1479 1486 1491 1497 1504 1509 1516 1521 1526 1530 1534 1539 1544
1418 1417 1415 1416 1414 1414 1415 1416 1417 1415 1414 1414 1413 1414 1415 1416 1420 1425 1429 1435 1442 1449 1457 1464 1471 1479 1487 1492 1497 1503 1508 1514 1520 1525 1529 1534 1538 1542
1414 1413 1410 1412 1410 1409 1411 1413 1412 1411 1411 1411 1411 1412 1413 1415 1419 1424 1428 1434 1440 1450 1456 1462 1469 1477 1486 1493 1497 1502 1507 1513 1519 1524 1527 1532 1535 1540
1407 1406 1405 1406 1405 1405 1407 1409 1409 1409 1409 1408 1409 1411 1413 1416 1421 1426 1430 1435 1441 1446 1453 1459 1467 1473 1479 1485 1492 1498 1504 1510 1516 1520 1524 1529 1533 1538
1402 1400 1399 1400 1400 1401 1403 1404 1405 1406 1407 1407 1409 1411 1414 1418 1423 1428 1433 1438 1442 1447 1453 1459 1464 1470 1475 1481 1487 1494 1500 1506 1511 1515 1520 1525 1531 1535
1397 1395 1393 1395 1396 1397 1399 1401 1402 1404 1405 1406 1408 1411 1415 1420 1425 1431 1435 1440 1445 1450 1455 1459 1464 1469 1476 1480 1482 1488 1494 1501 1506 1512 1517 1522 1526 1530
1391 1389 1390 1391 1392 1394 1396 1398 1400 1402 1404 1406 1408 1412 1416 1421 1426 1431 1435 1440 1445 1450 1456 1460 1466 1469 1475 1479 1482 1485 1491 1495 1500 1507 1513 1520 1524 1527
1386 1385 1387 1387 1388 1390 1393 1396 1398 1401 1402 1405 1408 1411 1416 1421 1426 1431 1436 1440 1444 1448 1453 1458 1465 1470 1475 1476 1481 1485 1488 1493 1498 1503 1509 1515 1520 1524
1383 1383 1384 1385 1386 1388 1391 1394 1397 1399 1401 1403 1406 1410 1413 1418 1423 1429 1435 1439 1442 1447 1451 1455 1461 1468 1474 1479 1482 1483 1487 1491 1496 1501 1506 1511 1515 1519
1381 1381 1382 1383 1384 1386 1389 1392 1395 1398 1400 1402 1405 1408 1412 1416 1421 1426 1433 1437 1441 1446 1450 1453 1457 1463 1468 1471 1475 1480 1485 1488 1493 1497 1501 1505 1510 1515
1379 1380 1380 1381 1382 1384 1387 1389 1393 1396 1398 1400 1403 1406 1409 1413 1418 1423 1428 1434 1438 1443 1448 1452 1455 1458 1462 1467 1470 1475 1482 1485 1488 1492 1496 1502 1508 1513
1377 1378 1378 1379 1380 1382 1384 1387 1390 1393 1396 1398 1400 1403 1406 1410 1414 1419 1425 1430 1435 1439 1443 1446 1451 1459 1464 1468 1471 1474 1479 1483 1487 1490 1493 1498 1502 1507
1376 1376 1376 1377 1378 1380 1382 1384 1387 1391 1393 1396 1398 1400 1403 1407 1411 1415 1420 1425 1430 1435 1440 1445 1451 1456 1460 1463 1467 1471 1475 1479 1485 1489 1492 1496 1497 1499
1373 1374 1374 1375 1376 1377 1379 1382 1385 1388 1390 1392 1395 1397 1401 1404 1407 1411 1416 1420 1426 1431 1436 1441 1448 1453 1457 1460 1464 1469 1473 1476 1481 1485 1489 1492 1496 1499
Wind_Speed
30 31 31 32 30 29 30 30 28 26 26 25 25 23 21 21 19 20 21 18 25 37 43 32 34 27 34 32 26 22 22 20 15 14 15 21 21 20
28 30 34 35 30 31 29 30 30 33 31 25 20 21 26 28 23 19 21 22 22 37 50 40 35 39 42 33 29 22 18 18 19 16 21 20 18 23
29 31 34 35 33 33 31 27 29 27 29 24 23 23 27 24 27 26 22 24 21 28 42 43 42 39 38 36 33 28 23 23 17 19 22 19 22 24
30 31 31 32 32 31 30 27 25 25 19 23 24 24 25 25 24 24 22 18 18 37 40 40 37 29 36 31 29 27 26 22 21 26 24 22 24 23
32 31 30 30 29 29 27 27 23 23 24 24 28 27 27 26 24 24 22 21 27 43 41 38 25 30 33 30 28 28 29 26 28 26 25 27 26 25
32 32 26 26 30 30 27 26 20 24 25 29 29 29 27 24 24 22 28 33 41 40 37 27 29 30 30 29 28 34 34 32 29 26 27 27 26 26
28 27 29 24 22 22 23 20 21 24 27 26 27 26 25 24 22 27 34 39 39 38 32 36 31 32 32 33 29 30 33 31 28 25 27 27 25 25
24 21 23 21 20 19 17 20 23 24 25 26 24 20 21 22 25 34 39 44 39 36 40 39 37 32 33 30 31 26 24 27 25 21 26 27 25 25
23 19 19 19 21 21 20 21 21 23 24 23 19 16 16 17 26 39 43 44 45 41 40 42 35 39 32 31 25 24 20 22 21 21 27 26 25 23
19 18 18 18 19 21 21 18 19 20 19 15 18 15 13 13 24 38 45 39 41 43 43 40 37 38 32 26 27 25 20 22 22 26 27 26 23 21
17 16 15 16 16 19 17 15 18 18 12 12 11 10 10 10 24 40 41 38 42 42 42 40 35 34 30 29 28 24 23 23 24 25 26 25 23 22
20 19 15 13 14 14 13 14 18 12 9 9 8 7 4 8 24 37 46 42 45 37 36 40 38 35 24 25 26 26 25 26 26 27 26 24 24 24
19 20 16 15 14 15 15 15 13 7 8 5 6 6 8 15 29 38 41 40 43 32 39 41 40 35 25 31 28 27 31 31 31 28 26 25 25 24
14 15 14 15 14 13 15 14 10 9 7 6 8 12 14 22 33 34 36 36 39 38 40 36 38 37 34 24 31 30 34 36 33 32 30 29 27 26
13 16 11 11 11 13 12 12 10 11 9 10 11 16 16 23 31 27 26 27 30 26 24 28 29 34 28 29 37 35 34 34 33 31 31 31 31 30
14 12 10 11 11 10 12 13 11 10 11 10 15 17 21 26 32 28 27 28 26 19 17 25 25 27 26 21 27 33 33 31 34 32 32 30 31 30
10 8 8 9 11 13 13 14 11 12 13 13 17 23 24 27 29 31 31 29 25 26 24 23 24 25 23 21 23 26 32 31 29 33 32 31 31 31
6 7 7 8 9 13 15 15 13 12 12 15 19 23 27 29 34 33 30 27 26 27 26 26 30 24 20 16 13 20 24 28 27 28 30 31 32 32
5 6 7 6 8 10 14 16 15 15 13 13 17 23 28 31 35 35 31 30 26 26 27 27 32 34 30 24 25 18 20 26 26 26 29 32 31 31
6 7 8 6 6 9 12 16 15 16 15 14 15 20 25 31 36 38 36 33 29 26 28 29 30 35 34 30 29 25 19 19 25 25 27 27 25 22
5 7 8 7 7 8 10 12 17 17 16 14 16 18 22 26 31 36 37 36 34 31 31 34 32 28 27 24 23 24 23 21 17 21 22 26 26 24
6 7 7 6 6 7 9 10 13 16 16 14 15 18 19 23 26 30 34 38 37 36 31 29 31 29 29 29 27 22 25 24 17 13 15 18 27 26
8 8 8 7 6 7 8 12 14 15 15 14 15 17 19 21 23 24 28 31 35 38 36 32 31 30 29 29 28 24 25 28 26 24 21 18 19 16
Wind_Direction
293 291 285 283 277 272 274 280 277 275 272 276 282 279 286 294 296 272 269 263 253 255 220 219 200 188 191 184 193 197 186 188 198 185 184 175 170 173
297 292 284 285 282 279 278 277 271 275 273 271 270 286 293 294 297 289 269 260 259 235 214 211 189 188 188 188 187 186 195 202 177 178 179 180 171 153
287 286 278 285 281 279 282 278 271 270 269 275 271 281 284 282 283 289 274 265 259 228 215 194 180 178 183 190 198 188 196 191 185 188 174 171 160 156
282 282 279 283 280 279 280 279 267 262 281 284 288 287 283 280 280 282 280 270 254 222 194 184 179 193 198 197 184 185 194 193 191 183 173 169 167 161
276 276 280 287 283 280 273 269 249 276 281 274 289 289 291 287 280 271 262 244 228 195 190 190 193 185 194 183 176 185 191 190 185 188 180 178 174 172
281 289 290 285 280 278 270 268 277 285 275 284 286 291 289 283 267 258 223 207 194 182 188 186 179 182 175 166 190 194 186 185 186 190 191 188 185 181
287 280 287 284 278 272 265 289 285 289 286 285 289 287 280 271 248 226 203 188 181 188 182 179 179 172 177 171 180 169 180 186 185 191 192 191 190 184
296 295 285 285 278 265 275 270 280 289 288 288 287 281 282 267 232 203 189 180 165 180 177 173 187 180 180 182 179 190 177 181 187 198 195 194 192 191
295 286 287 277 271 272 276 278 283 289 288 287 274 275 280 270 234 199 195 197 185 178 185 171 185 181 187 180 174 183 187 193 199 206 193 194 195 202
287 291 288 280 265 270 279 272 284 289 290 274 274 265 273 275 242 212 184 181 179 174 184 165 176 177 176 178 184 181 187 200 199 195 193 195 201 199
289 289 281 279 277 275 268 273 286 289 281 279 269 253 268 257 225 197 181 179 168 171 181 172 174 170 169 171 174 184 189 194 196 195 198 202 200 193
289 291 290 289 284 280 269 280 284 291 276 285 247 245 220 224 215 208 194 184 172 164 177 169 172 168 159 178 181 187 192 196 198 203 202 203 197 191
283 280 274 274 274 268 260 274 276 266 270 249 216 200 190 199 194 194 197 201 183 172 178 180 178 180 182 180 192 205 202 200 202 204 207 202 199 197
296 297 278 265 265 261 253 260 261 237 238 210 190 189 186 188 189 195 200 200 197 199 190 197 195 201 202 190 188 204 203 204 204 204 202 198 201 203
295 297 271 249 264 250 247 249 242 230 220 200 188 186 182 186 185 186 193 199 197 197 203 206 208 198 203 203 193 191 188 198 204 204 202 201 202 205
285 288 270 254 245 251 239 227 229 230 218 207 195 188 180 184 184 184 176 179 187 174 189 204 202 211 202 209 201 188 192 191 196 200 203 203 204 209
286 280 268 257 238 220 223 218 224 221 214 206 197 192 187 183 190 194 192 189 189 182 185 188 189 198 200 203 195 203 199 199 204 200 201 203 207 212
283 275 271 259 243 227 217 209 210 214 210 206 202 201 197 189 194 194 195 198 193 187 184 178 174 176 183 205 223 208 208 209 207 207 207 208 210 212
273 273 270 259 244 232 225 219 223 217 213 207 205 206 204 200 199 199 196 195 198 192 185 180 181 182 178 191 201 209 220 209 205 210 210 214 216 217
264 269 270 259 247 231 235 225 226 215 208 214 211 210 209 207 203 204 205 204 204 202 196 192 190 191 192 189 194 203 201 214 210 212 211 212 217 220
268 270 266 258 253 245 230 226 224 220 217 220 220 215 214 211 210 211 211 211 209 209 206 203 204 198 201 204 208 207 208 213 220 224 217 211 205 208
281 267 267 259 247 235 240 221 219 223 220 219 219 218 217 215 215 214 213 213 211 212 215 212 200 199 201 208 213 209 205 211 209 213 228 229 208 211
284 268 261 260 257 244 230 228 221 225 227 229 221 219 217 214 214 217 216 215 213 211 213 210 202 201 204 207 214 211 211 206 202 205 213 216 220 222